This demonstration page uses our WeatherBlox Daily Observations layout. Learn more.

Left ArrowRight Arrow

Hourly Observations for January 1, 2016

Temp ( °F °C ) Dew Point ( °F °C ) Humidity (%) Winds ( mph kmh ) Pressure ( in mb ) Visibility ( mi km ) Precip ( " mm )
12:53 am 00:53 Clear 19 -7.2 12 -11.1 74 74 W 10 17 30.51 1033 10 16 0.00 0.00
1:53 am 01:53 Clear 17 -8.3 11 -11.7 77 77 W 9 15 30.51 1033 10 16 0.00 0.00
2:53 am 02:53 Clear 17 -8.3 10 -12.2 74 74 W 10 17 30.51 1033 10 16 0.00 0.00
3:53 am 03:53 Clear 16 -8.9 10 -12.2 77 77 W 9 15 30.50 1033 10 16 0.00 0.00
4:53 am 04:53 Clear 17 -8.3 10 -12.2 74 74 W 12 19 30.49 1033 10 16 0.00 0.00
5:53 am 05:53 Clear 18 -7.8 10 -12.2 71 71 W 12 19 30.48 1032 10 16 0.00 0.00
6:53 am 06:53 Clear 17 -8.3 10 -12.2 74 74 W 12 19 30.49 1033 10 16 0.00 0.00
7:53 am 07:53 Clear 18 -7.8 11 -11.7 74 74 W 10 17 30.48 1032 10 16 0.00 0.00
8:53 am 08:53 Sunny 16 -8.9 9 -12.8 74 74 WSW 10 17 30.47 1032 10 16 0.00 0.00
9:53 am 09:53 Sunny 22 -5.6 11 -11.7 63 63 W 16 26 30.45 1031 10 16 0.00 0.00
10:53 am 10:53 Sunny 26 -3.3 14 -10 60 60 W 14 22 30.44 1031 10 16 0.00 0.00
11:53 am 11:53 Sunny 30 -1.1 15 -9.4 54 54 W 17 28 30.42 1030 10 16 0.00 0.00
12:53 pm 12:53 Sunny 32 0 17 -8.3 54 54 W 17 28 30.37 1029 10 16 0.00 0.00
1:53 pm 13:53 Sunny 35 1.7 19 -7.2 52 52 W 15 24 30.35 1028 10 16 0.00 0.00
2:53 pm 14:53 Sunny 37 2.8 20 -6.7 50 50 W 13 20 30.35 1028 10 16 0.00 0.00
3:53 pm 15:53 Sunny 38 3.3 20 -6.7 48 48 W 13 20 30.34 1027 10 16 0.00 0.00
4:53 pm 16:53 Sunny 35 1.7 22 -5.6 59 59 WSW 9 15 30.34 1027 10 16 0.00 0.00
5:53 pm 17:53 Clear 31 -0.6 20 -6.7 64 64 WSW 7 11 30.35 1028 10 16 0.00 0.00
6:53 pm 18:53 Clear 29 -1.7 18 -7.8 63 63 W 8 13 30.35 1028 10 16 0.00 0.00
7:53 pm 19:53 Clear 28 -2.2 16 -8.9 60 60 WNW 9 15 30.36 1028 10 16 0.00 0.00
8:53 pm 20:53 Clear 28 -2.2 15 -9.4 58 58 W 9 15 30.36 1028 10 16 0.00 0.00
9:53 pm 21:53 Clear 25 -3.9 15 -9.4 66 66 W 7 11 30.35 1028 10 16 0.00 0.00
10:53 pm 22:53 Clear 25 -3.9 15 -9.4 66 66 W 9 15 30.35 1028 10 16 0.00 0.00
11:53 pm 23:53 Clear 24 -4.4 14 -10 65 65 W 10 17 30.35 1028 10 16 0.00 0.00

Powered by AerisWeather